Williston, ND

3:45 AM CST on January 17, 2018 (GMT -0600)
Sloulin International

Weather History for KISN - November, 2012

Change the Weather History Date:

Thursday, November 29, 2012

  Actual Average Record
Temperature  
Mean Temperature 17 °F 20 °F  
Max Temperature 20 °F 30 °F 52 °F (1969)
Min Temperature 14 °F 10 °F -24 °F (1985)
Degree Days  
Heating Degree Days 48 45  
Month to date heating degree days 1141 1090  
Since 1 July heating degree days 2121 2117  
Cooling Degree Days 0 0  
Month to date cooling degree days 0 0  
Year to date cooling degree days 532 456  
Moisture  
Dew Point 15 °F    
Average Humidity 89    
Maximum Humidity 100    
Minimum Humidity 77    
Precipitation  
Precipitation 0.00 in 0.02 in 0.28 in (1962)
Month to date precipitation 1.49 0.63  
Year to date precipitation 12.63 13.73  
Snow  
Snow 0.00 in - - ()
Month to date snowfall 16.0  
Snow Depth 1.00 in    
Sea Level Pressure  
Sea Level Pressure 30.08 in    
Wind  
Wind Speed 9 mph (East)    
Max Wind Speed 20 mph    
Max Gust Speed 24 mph    
Visibility 8 miles    
Events      
T = Trace of Precipitation, MM = Missing Value Source: NWS Daily Summary

Daily Weather History Graph

Daily Weather History Graph

Search for Another Location

Airport or City:

Trip Planner

Search our weather history database for the weather conditions in past years. The results will help you decide how hot, cold, wet, or windy it might be!

Date:

Astronomy

Nov. 29, 2012 Rise Set
Actual Time 8:22 AM CST 5:03 PM CST
Civil Twilight 7:46 AM CST 5:39 PM CST
Nautical Twilight 7:07 AM CST 6:18 PM CST
Astronomical Twilight 6:30 AM CST 6:55 PM CST
Moon 6:08 PM CST (11/29) 9:11 AM CST (11/29)
Length of Visible Light 9h 52m
Length of Day
8h 41m
Full, 99% of the Moon is Illuminated
Nov 29
Full
Dec 6
Last Quarter
Dec 13
New
Dec 19
First Quarter
Dec 28
Full

Hourly Weather History & Observations

Time (CST) Temp. Windchill Dew Point Humidity Pressure Visibility Wind Dir Wind Speed Gust Speed Precip Events Conditions
12:30 AM 15.8 °F 6.1 °F 12.2 °F 86% 30.05 in 10.0 mi ENE 6.9 mph - N/A   Mostly Cloudy
12:52 AM 16.0 °F 7.4 °F 12.9 °F 88% 30.14 in 10.0 mi East 5.8 mph - N/A   Overcast
1:08 AM 17.6 °F 6.4 °F 15.8 °F 93% 30.04 in 10.0 mi ESE 9.2 mph - N/A   Overcast
1:49 AM 17.6 °F 8.2 °F 17.6 °F 100% 30.03 in 8.0 mi East 6.9 mph - N/A   Overcast
1:52 AM 18.0 °F 8.7 °F 17.1 °F 96% 30.12 in 8.0 mi East 6.9 mph - N/A   Overcast
2:52 AM 18.0 °F 5.4 °F 18.0 °F 100% 30.11 in 5.0 mi East 11.5 mph - N/A   Overcast
3:52 AM 19.0 °F 7.5 °F 19.0 °F 100% 30.10 in 4.0 mi East 10.4 mph - N/A   Overcast
4:23 AM 19.4 °F 7.9 °F 19.4 °F 100% 29.99 in 2.5 mi East 10.4 mph - N/A   Overcast
4:52 AM 19.9 °F 8.6 °F 19.9 °F 100% 30.09 in 3.0 mi East 10.4 mph - N/A   Overcast
5:52 AM 19.9 °F 7.9 °F 19.9 °F 100% 30.08 in 5.0 mi East 11.5 mph - N/A   Overcast
6:52 AM 18.0 °F 6.1 °F 18.0 °F 100% 30.10 in 5.0 mi East 10.4 mph - N/A   Overcast
7:52 AM 16.0 °F 1.1 °F 15.1 °F 96% 30.10 in 7.0 mi East 15.0 mph - N/A   Overcast
8:30 AM 15.8 °F 0.9 °F 14.0 °F 93% 30.00 in 8.0 mi East 15.0 mph - N/A   Overcast
8:52 AM 14.0 °F -0.2 °F 12.0 °F 92% 30.11 in 9.0 mi East 12.7 mph 24.2 mph N/A   Overcast
9:11 AM 14.0 °F -2.0 °F 12.2 °F 93% 30.00 in 9.0 mi East 16.1 mph 23.0 mph N/A   Overcast
9:52 AM 14.0 °F -0.8 °F 12.0 °F 92% 30.11 in 6.0 mi ESE 13.8 mph - N/A   Overcast
10:52 AM 17.1 °F 3.6 °F 12.9 °F 84% 30.11 in 6.0 mi ESE 12.7 mph - N/A   Overcast
11:52 AM 17.1 °F 3.6 °F 14.0 °F 88% 30.12 in 4.0 mi ESE 12.7 mph - N/A   Overcast
12:52 PM 17.1 °F 2.0 °F 12.9 °F 84% 30.11 in 6.0 mi East 16.1 mph - N/A   Overcast
1:52 PM 17.1 °F 3.0 °F 12.9 °F 84% 30.09 in 10.0 mi ESE 13.8 mph - N/A   Overcast
2:52 PM 18.0 °F 6.1 °F 12.9 °F 81% 30.09 in 10.0 mi ESE 10.4 mph - N/A   Overcast
3:52 PM 18.0 °F 6.1 °F 12.9 °F 81% 30.08 in 10.0 mi ESE 10.4 mph - N/A   Overcast
4:43 PM 17.6 °F 5.7 °F 14.0 °F 86% 29.97 in 10.0 mi ESE 10.4 mph - N/A   Overcast
4:52 PM 18.0 °F 8.7 °F 14.0 °F 84% 30.08 in 10.0 mi ESE 6.9 mph - N/A   Overcast
5:52 PM 19.0 °F 10.0 °F 14.0 °F 81% 30.11 in 10.0 mi SE 6.9 mph - N/A   Overcast
6:52 PM 19.0 °F 9.0 °F 14.0 °F 81% 30.10 in 10.0 mi ESE 8.1 mph - N/A   Mostly Cloudy
7:52 PM 19.0 °F 11.1 °F 14.0 °F 81% 30.10 in 10.0 mi ESE 5.8 mph - N/A   Clear
8:52 PM 17.1 °F 10.0 °F 12.9 °F 84% 30.09 in 10.0 mi East 4.6 mph - N/A   Clear
9:52 PM 16.0 °F 8.8 °F 12.0 °F 84% 30.10 in 10.0 mi East 4.6 mph - N/A   Clear
10:52 PM 16.0 °F 7.4 °F 10.9 °F 81% 30.10 in 10.0 mi East 5.8 mph - N/A   Clear
11:52 PM 16.0 °F - 12.0 °F 84% 30.11 in 10.0 mi Calm Calm - N/A   Clear